Lapse_Rate
9.3 8.3 8.1 7.8 8.7 7.5 8.5 9.3 9.0 9.5 8.9 8.4 8.5 8.7 8.9 8.1 7.8 7.0 6.7 6.6 6.9 6.5 7.1 7.2 7.0 7.0 7.0 7.0 6.5 6.1 6.2 6.2
8.9 9.6 8.4 8.4 8.0 9.2 8.9 8.7 8.5 9.5 9.5 9.6 9.1 8.7 9.3 8.3 8.3 7.7 7.3 6.7 5.4 7.4 7.2 7.5 7.4 7.2 6.9 6.9 6.9 6.5 6.2 6.1
8.6 8.9 8.5 9.1 7.9 8.4 9.3 9.5 9.1 9.4 9.4 9.4 9.6 9.4 9.2 8.5 8.4 8.0 7.3 6.1 5.7 6.5 7.7 7.8 7.5 7.4 7.3 7.1 7.0 6.8 6.6 6.4
8.2 8.3 9.2 9.5 8.8 9.2 9.2 9.0 9.2 9.5 9.6 9.2 9.3 9.5 9.5 9.3 9.6 9.0 8.9 8.1 6.7 6.0 6.0 7.5 7.8 7.7 7.6 7.3 7.3 7.1 7.0 6.8
7.6 7.9 8.6 9.5 8.6 8.8 9.3 9.2 9.1 9.5 9.5 8.8 9.3 9.3 9.8 9.6 9.4 9.4 9.0 8.3 8.1 6.2 6.0 6.7 7.5 7.7 7.9 7.7 7.5 7.2 7.1 7.2
7.7 8.7 8.5 8.8 9.5 8.9 9.0 9.6 9.5 9.1 8.9 8.7 9.3 9.4 9.3 9.3 9.6 9.6 8.9 8.8 8.7 7.0 5.9 7.0 7.3 7.8 8.0 7.9 7.7 7.4 7.2 7.1
6.6 7.2 8.2 8.1 8.3 8.3 9.0 8.8 9.4 9.2 9.0 8.4 8.9 8.6 8.7 8.9 9.2 9.1 8.9 9.1 8.7 8.3 8.4 6.9 6.9 7.8 8.1 7.9 8.0 7.8 7.7 7.4
7.2 7.3 8.1 7.8 7.8 7.7 7.6 7.9 8.8 9.3 8.3 7.8 8.0 6.9 8.1 7.7 8.8 9.1 9.1 8.8 8.7 8.7 8.5 7.4 5.8 7.6 8.3 7.9 8.1 8.0 8.0 7.9
7.2 7.7 7.6 8.2 7.8 7.6 7.4 7.3 7.8 8.2 7.7 7.3 7.4 7.1 7.5 7.7 7.9 8.3 8.5 8.3 8.2 7.7 8.0 7.5 6.9 6.0 7.7 8.1 7.7 8.1 8.1 8.3
7.1 7.4 7.6 6.9 8.0 8.5 8.2 7.9 7.9 7.7 7.4 7.3 7.2 7.2 7.1 6.7 7.4 7.4 6.8 7.3 7.3 7.1 6.6 6.7 5.0 5.5 7.4 7.7 7.7 8.2 8.3 8.2
7.4 7.7 7.6 7.9 8.8 8.2 8.3 8.5 8.4 7.9 7.7 7.4 7.4 7.2 6.9 6.8 6.6 5.9 6.4 5.4 6.5 6.9 6.8 7.3 7.0 6.8 6.8 7.0 7.9 8.1 8.3 8.5
7.6 8.1 8.6 8.3 7.6 8.0 7.8 7.5 7.9 7.3 7.0 7.0 6.6 7.0 6.9 6.6 6.1 5.8 5.5 6.2 6.4 7.2 7.2 7.4 7.7 7.6 7.4 7.4 7.1 8.4 8.3 8.8
7.6 7.5 7.9 8.2 7.7 7.6 7.8 8.0 7.9 7.4 7.3 7.0 6.7 5.7 5.7 5.9 5.8 5.9 6.0 5.4 6.1 7.1 6.9 7.1 7.3 7.5 7.6 7.5 8.0 8.5 8.7 8.6
7.5 7.6 7.4 7.7 7.4 7.5 7.5 7.4 7.4 7.2 7.1 7.2 6.9 6.3 5.8 5.8 5.6 6.1 6.5 6.1 6.8 7.1 6.9 6.9 6.8 7.1 7.5 7.7 7.9 8.4 8.7 8.7
6.9 7.6 7.3 7.5 7.6 7.5 7.5 7.4 7.4 7.5 7.2 6.8 6.7 6.8 6.5 6.2 6.1 5.9 6.6 6.8 6.5 6.6 6.9 7.0 7.0 7.0 7.5 7.8 8.2 8.3 8.3 8.8
7.0 7.0 7.0 6.9 7.3 7.4 7.3 7.1 7.1 7.1 7.1 6.7 6.6 6.7 6.9 6.6 6.3 6.8 6.5 6.8 6.6 7.2 7.2 7.2 7.1 6.8 7.0 7.9 8.2 8.3 8.3 8.6
6.5 6.5 6.8 6.8 6.9 7.1 7.3 6.8 6.8 6.5 6.5 6.1 5.6 6.6 6.8 6.5 6.3 5.9 6.2 6.7 6.7 7.3 7.4 7.3 7.2 6.8 6.9 7.6 8.1 8.4 8.4 8.5
5.3 5.6 5.6 5.9 6.0 6.2 6.4 6.4 6.4 6.1 5.8 5.8 5.6 5.5 5.6 5.7 5.7 5.9 5.8 6.1 7.1 7.2 7.2 7.0 7.3 7.0 6.9 7.0 7.4 8.1 8.3 8.5
5.1 5.4 5.4 5.3 5.4 5.4 5.4 5.4 5.7 5.9 5.5 5.7 5.4 5.3 5.1 5.4 5.6 5.8 5.7 5.7 5.8 6.7 6.5 6.4 6.4 6.4 6.2 6.0 6.4 6.9 7.5 8.3
Wind_Speed
11 18 18 20 19 22 23 22 16 17 18 23 21 22 17 14 13 15 7 7 23 25 24 24 23 24 25 24 23 22 22 18
16 9 14 20 19 18 15 22 24 18 21 13 20 18 17 19 15 11 8 17 22 22 24 22 23 21 22 22 24 22 21 18
17 13 13 13 15 20 19 17 18 16 16 18 14 22 18 20 21 21 20 13 14 15 20 22 21 21 22 21 22 21 21 20
17 19 19 17 21 20 14 18 16 15 17 21 10 9 21 19 17 23 19 22 16 23 30 23 23 23 23 22 21 22 20 19
15 15 20 13 19 20 21 19 22 16 15 25 17 13 7 15 15 17 23 26 28 27 25 25 24 22 22 23 23 21 20 20
14 11 13 12 15 19 21 16 17 20 24 21 16 8 12 9 5 11 21 26 24 23 24 26 25 22 21 22 22 21 22 21
21 24 20 18 17 18 20 23 20 19 22 22 9 21 16 19 20 10 11 7 14 12 8 19 21 22 20 19 21 21 20 22
20 22 21 21 19 18 20 20 22 18 21 20 16 7 19 19 21 27 7 1 7 7 9 13 11 19 19 19 19 19 20 21
18 17 21 21 20 19 20 20 18 18 19 18 15 16 8 14 17 18 24 10 13 14 9 9 11 14 19 18 17 18 17 18
11 14 15 15 21 21 24 24 20 20 21 20 19 17 16 16 8 12 25 16 13 13 14 4 14 27 19 17 16 15 17 16
8 13 16 23 11 8 10 12 9 18 17 25 19 21 20 15 16 12 14 26 16 13 13 12 13 13 10 15 20 18 15 18
10 14 16 18 8 8 10 10 16 15 17 23 24 14 4 14 15 13 12 18 20 19 17 15 14 15 12 13 15 20 20 17
13 11 14 5 5 8 10 5 15 14 15 18 15 10 11 11 13 13 13 17 19 18 15 17 15 14 14 14 15 16 18 16
10 11 14 5 8 12 9 12 15 15 14 16 20 18 17 13 13 13 13 15 18 15 14 17 13 10 16 16 16 11 15 16
4 4 12 7 6 9 10 12 15 15 15 16 22 16 16 11 13 13 11 11 13 13 12 15 17 15 13 14 14 13 8 17
10 3 12 12 10 11 11 12 16 16 15 16 21 15 14 10 10 10 11 10 13 15 14 15 16 16 14 15 12 12 12 14
5 6 14 4 13 14 14 15 15 20 17 17 13 11 11 9 11 9 8 10 9 12 12 15 16 14 16 16 15 11 13 13
3 10 8 12 11 13 14 15 18 14 10 10 9 8 9 8 9 6 7 9 9 10 12 13 15 15 16 16 15 13 7 10
3 9 8 9 11 8 12 13 11 11 10 7 2 4 8 8 6 6 7 11 12 9 10 11 13 14 16 17 16 14 10 6
Wind_Direction
265 214 226 247 225 238 262 269 258 255 227 229 245 245 201 154 162 160 280 299 188 185 187 185 189 186 184 180 184 187 192 187
285 211 258 232 257 231 230 249 260 264 265 237 207 237 219 145 155 168 162 260 279 183 187 186 191 187 186 183 186 188 188 192
291 266 234 231 248 259 270 231 252 256 258 271 213 206 216 185 175 177 171 183 259 296 193 190 187 190 188 189 182 188 192 194
266 275 270 227 265 253 248 253 266 257 255 260 343 251 206 228 221 170 161 159 158 243 256 183 186 190 190 189 191 191 192 192
264 265 267 249 243 254 267 252 255 255 241 263 288 331 256 205 224 155 162 160 182 203 239 182 183 188 189 191 194 188 190 195
278 280 338 305 246 259 271 256 252 250 266 276 257 304 327 350 323 245 172 180 190 200 221 180 177 183 188 190 190 191 189 195
278 284 287 282 283 285 270 259 259 249 253 262 21 355 343 351 347 269 228 263 235 226 166 180 170 178 183 190 190 189 193 194
274 284 276 264 263 264 275 281 277 263 277 291 334 81 295 331 360 340 260 194 352 357 221 127 231 173 184 190 189 191 193 195
273 275 278 268 255 260 263 263 270 267 264 282 302 301 283 321 356 343 338 25 19 355 41 32 59 292 178 191 194 190 196 191
268 286 271 259 279 250 245 251 257 264 272 280 289 290 298 317 332 329 336 351 358 344 343 55 125 247 226 189 195 199 194 193
249 256 266 284 289 6 351 258 280 354 326 319 302 271 270 28 40 358 342 328 333 333 329 329 321 315 316 197 191 199 201 199
233 251 252 256 62 348 327 260 26 3 347 340 334 296 62 10 24 6 344 328 321 324 320 305 293 293 285 287 195 198 203 203
225 243 261 63 345 310 258 291 344 341 337 342 326 337 336 356 14 358 346 321 320 308 299 289 274 257 260 260 266 205 203 202
240 248 258 66 240 245 347 328 323 329 322 327 317 321 321 348 354 348 345 337 325 314 311 304 330 276 230 241 246 262 192 195
227 290 50 19 336 319 312 297 303 315 308 315 310 307 316 343 336 336 351 335 331 323 348 354 349 346 332 228 228 239 240 190
343 68 349 314 342 351 326 314 306 299 300 299 285 293 305 334 327 323 344 345 340 347 6 358 346 340 351 341 302 203 226 190
268 309 328 30 341 328 318 319 312 308 289 269 268 280 292 309 317 315 332 333 340 356 4 1 341 342 352 348 341 230 203 185
301 314 306 294 319 335 325 320 306 294 311 269 248 264 295 297 300 302 342 328 337 6 7 356 342 342 351 353 351 347 200 183
265 296 298 305 308 323 313 314 326 326 306 278 228 310 298 288 299 337 357 349 334 360 358 355 341 340 346 351 354 348 342 250